Theta_e
317 338 348 349 350 350 349 350 350 350 349 349 349 348 348 347 347 346 345 345 345 345 344 344 344 344 345 347 352 354 354 353 352 352 353 354 356 354 354 353 352 350 354
328 341 346 348 349 350 349 348 348 347 348 349 349 349 349 349 348 347 347 347 347 346 346 345 345 344 345 348 350 352 354 353 351 348 350 350 351 353 352 353 351 349 353
329 329 333 343 344 343 346 347 348 346 347 347 348 348 349 348 349 349 350 350 348 348 347 347 345 344 347 348 348 350 353 353 351 347 346 345 346 353 352 352 351 354 352
313 319 325 334 338 339 341 341 342 344 345 346 346 348 348 348 348 348 348 349 350 347 347 347 346 344 346 347 348 349 351 353 350 346 345 346 346 353 352 352 352 353 353
306 310 320 331 331 331 332 334 335 337 341 342 344 345 346 347 347 346 347 348 348 346 347 347 346 347 346 346 347 347 349 351 348 345 344 344 344 350 353 352 353 352 350
302 304 314 322 323 323 325 328 330 332 335 336 337 339 341 343 343 343 345 345 346 345 345 346 345 348 347 347 346 346 348 350 346 342 343 343 344 350 354 353 351 350 346
298 301 304 315 317 317 318 319 320 321 325 329 332 334 334 335 339 341 342 343 344 344 344 345 346 347 348 348 348 347 346 346 344 341 342 341 344 350 354 353 352 351 350
297 299 301 307 312 312 313 314 315 315 318 321 324 325 327 332 334 335 337 340 341 341 342 344 346 345 347 346 346 345 343 341 340 339 340 341 344 350 352 353 352 351 351
295 297 297 298 303 307 308 309 311 311 313 316 318 317 321 325 328 330 332 334 338 340 342 342 342 343 344 345 345 343 340 337 340 339 339 340 342 349 352 352 352 351 351
295 294 295 295 297 298 298 306 307 307 308 311 311 313 314 314 317 323 326 329 333 335 338 340 340 340 341 341 341 340 336 335 338 338 338 339 341 348 350 352 351 351 351
294 294 293 294 295 297 297 299 302 304 305 307 307 308 308 307 312 311 314 317 322 326 332 335 337 339 337 335 336 335 333 337 337 338 338 337 341 347 350 351 351 350 350
289 291 292 292 293 294 297 295 295 297 297 300 303 302 302 305 308 306 308 312 311 313 317 329 332 334 331 332 331 331 333 335 337 338 338 336 341 346 349 350 350 350 349
287 289 290 291 292 292 293 293 292 293 293 297 299 301 300 303 303 300 304 304 304 305 309 315 322 326 327 329 329 329 331 333 336 337 335 334 340 346 348 349 349 350 349
287 288 289 289 290 290 290 290 290 290 292 292 296 298 299 298 298 297 299 302 301 300 310 311 310 311 323 327 328 328 329 332 334 334 334 329 335 344 347 349 350 349 349
286 286 287 287 288 289 289 289 289 289 290 291 292 294 297 295 295 295 295 299 299 301 307 306 304 304 305 315 326 327 328 329 332 332 333 324 329 339 345 349 349 350 349
286 286 287 287 288 289 288 288 288 289 290 290 291 292 295 294 293 292 293 296 298 300 303 302 301 302 302 305 318 326 327 328 329 330 331 331 325 332 339 345 348 349 350
285 286 286 288 289 288 288 288 288 289 290 289 290 292 292 292 291 291 291 294 297 298 300 299 299 301 301 302 303 323 326 326 327 327 328 330 329 324 331 340 344 347 348
284 285 286 289 287 288 287 287 288 288 288 288 288 288 289 289 289 288 289 291 294 296 298 297 297 298 299 300 300 303 323 326 325 325 326 328 329 329 327 332 336 342 345
283 284 285 286 286 287 287 287 287 287 286 286 286 287 286 287 286 287 287 289 290 293 296 295 296 297 296 298 299 301 303 323 324 324 324 326 328 328 330 328 327 330 339
283 284 284 286 286 286 286 286 285 285 285 284 284 285 285 285 285 284 285 284 285 288 291 294 296 297 297 298 300 300 301 302 322 323 323 324 325 325 328 330 329 328 329
282 283 283 284 285 285 284 283 283 281 282 282 283 284 283 283 284 283 282 282 283 283 284 290 295 295 295 296 298 297 299 302 309 321 323 323 323 324 326 328 329 330 330
282 282 283 284 284 284 284 283 282 281 281 281 282 282 282 282 282 281 281 280 281 281 283 285 289 292 294 295 294 295 292 299 311 320 321 321 322 323 323 325 327 328 331
281 281 283 283 284 284 283 283 282 281 280 278 279 280 281 281 281 280 280 280 281 281 285 286 288 292 292 293 294 294 291 293 294 315 319 320 320 321 323 324 325 326 328
281 281 282 283 283 284 283 281 278 277 276 277 278 279 279 280 279 279 279 279 280 281 279 282 286 288 292 290 291 296 298 297 292 290 310 317 319 319 321 323 324 325 326
282 280 281 281 282 283 282 280 278 277 278 278 277 276 277 278 279 278 278 279 277 277 278 279 282 286 290 291 290 291 294 295 296 293 291 295 315 317 320 322 324 325 324
281 280 280 280 280 282 280 279 277 276 276 275 275 275 276 277 277 277 278 276 276 276 277 279 280 283 285 288 292 292 291 291 293 293 293 294 307 313 316 319 322 324 324
Wind_Speed
7 8 12 12 9 7 5 6 4 4 4 3 3 4 5 5 5 5 5 5 7 9 10 10 9 8 8 9 11 12 8 10 9 9 7 7 8 10 11 11 10 6 11
5 7 12 14 13 11 11 9 8 6 5 6 6 7 7 9 9 9 8 8 7 8 10 12 12 11 10 9 10 11 11 8 10 9 7 6 8 8 11 11 11 8 12
14 14 13 17 18 20 18 15 11 7 7 9 10 10 10 10 11 12 12 10 10 9 11 12 12 13 11 9 10 11 12 10 10 9 8 4 4 8 11 11 11 12 14
9 12 14 19 20 21 21 20 21 19 17 15 14 14 14 14 13 13 14 12 12 12 13 13 14 13 12 11 11 12 11 11 10 9 4 4 3 11 13 13 14 13 13
12 11 14 21 23 24 24 24 22 21 21 20 19 18 18 17 16 14 14 14 14 14 15 15 15 14 13 12 11 13 11 10 10 8 6 5 5 9 14 14 14 14 12
9 10 16 23 24 25 25 25 24 23 22 21 21 21 21 19 20 18 17 16 15 17 17 17 16 15 14 13 12 13 11 11 9 6 6 6 6 11 16 15 13 12 11
8 9 12 24 24 25 26 25 24 24 23 22 21 21 21 21 20 19 20 19 17 18 19 19 16 15 14 14 13 13 13 11 8 6 7 6 7 13 18 17 15 16 14
7 7 8 16 22 24 27 26 25 25 24 24 24 25 25 24 22 20 20 21 20 20 19 19 18 17 15 14 14 14 12 11 8 7 8 7 10 16 18 18 18 17 18
6 8 8 7 11 16 22 24 24 26 25 25 24 26 26 25 25 24 24 22 22 22 19 19 19 18 18 15 14 13 12 12 10 7 8 6 10 20 21 19 18 18 19
7 7 8 7 7 7 7 20 21 23 23 23 24 25 22 23 24 23 23 24 25 25 24 19 19 19 20 19 15 13 12 13 10 8 8 8 15 22 23 20 19 21 21
7 7 7 9 9 8 8 11 13 16 18 19 18 22 16 11 12 18 22 27 29 28 26 24 23 21 18 19 16 13 14 6 7 8 7 13 18 24 24 22 21 21 22
6 7 7 7 7 7 7 7 7 8 6 6 7 11 10 11 11 14 14 21 25 26 28 26 24 21 16 9 6 10 7 8 8 9 8 15 21 27 24 24 22 23 24
3 5 7 7 7 7 6 5 4 3 4 5 6 6 6 8 9 9 8 8 9 16 10 14 16 9 12 9 9 8 9 8 8 8 11 16 22 26 26 27 24 25 25
4 4 5 6 5 5 3 3 3 3 4 5 6 7 5 7 7 8 8 9 7 8 10 10 9 15 16 13 13 13 12 10 8 8 10 17 21 26 26 28 27 28 27
5 4 4 5 6 5 5 4 5 5 4 6 7 9 7 10 8 8 9 8 6 8 8 9 10 11 14 19 14 15 14 12 13 9 8 16 20 25 29 29 29 30 30
3 3 3 4 6 6 5 6 4 4 4 4 5 5 8 8 8 10 11 10 8 8 8 7 9 11 11 13 19 16 17 15 14 14 11 10 19 24 28 30 29 31 31
2 2 4 3 5 5 4 4 4 4 4 4 5 6 7 8 10 12 10 10 9 9 11 8 9 10 10 11 15 19 15 16 15 15 15 11 10 20 21 31 30 30 32
5 3 2 1 2 2 2 3 3 4 3 4 4 5 6 11 11 11 9 10 11 10 10 9 10 10 10 11 12 13 16 13 17 17 14 13 11 10 17 22 32 31 32
6 4 2 1 1 2 3 3 3 3 3 3 3 6 11 12 15 12 11 10 13 11 10 9 12 9 10 11 12 13 15 14 15 13 17 18 15 12 11 19 21 29 32
6 4 1 2 3 3 2 3 2 3 4 4 4 4 8 10 12 12 12 14 14 12 11 10 12 9 10 10 11 13 12 14 17 15 16 15 15 15 13 14 13 16 29
5 4 1 2 3 1 2 3 4 4 4 3 3 5 8 9 10 11 10 11 11 12 15 17 13 13 11 6 9 11 11 13 21 15 14 14 16 16 15 13 10 12 13
6 3 2 2 3 2 1 1 0 2 3 3 3 4 5 8 10 10 13 12 13 12 15 15 15 13 12 6 5 8 9 9 13 16 15 15 17 13 14 15 16 16 15
6 5 2 3 3 2 3 2 2 3 3 2 5 6 5 9 9 10 14 13 13 12 12 15 15 18 13 8 7 5 5 7 8 4 20 15 17 14 14 16 18 16 15
7 5 4 3 4 3 4 3 3 3 6 5 7 8 9 10 10 10 13 14 13 11 16 14 13 16 14 14 6 8 13 11 6 9 8 11 14 15 16 14 16 18 18
7 6 3 4 5 5 4 4 3 5 6 7 7 12 12 10 10 11 13 12 14 11 14 17 18 16 15 13 11 8 9 11 12 8 16 13 11 11 12 14 13 13 14
4 3 3 4 5 6 5 6 6 7 8 9 10 10 10 10 9 11 13 11 14 13 16 13 16 19 16 16 12 10 9 9 11 10 10 14 23 12 9 10 12 12 13
Wind_Direction
340 338 353 352 335 323 314 305 288 251 258 270 250 261 269 263 260 264 262 260 291 302 303 300 297 293 292 292 298 308 260 252 233 232 248 211 184 195 182 159 156 157 169
301 2 9 14 8 353 338 317 295 280 279 274 263 269 271 280 279 270 264 269 263 277 292 296 297 293 289 293 295 307 282 252 250 232 237 218 193 193 184 163 161 171 169
13 12 3 10 24 24 16 8 337 309 305 298 297 283 273 273 280 287 287 278 270 268 285 285 283 289 289 285 289 288 293 240 241 229 225 211 201 193 189 171 170 175 173
17 25 23 32 30 26 26 30 27 19 2 335 323 316 307 299 289 287 292 294 294 287 288 288 288 284 282 282 284 284 294 236 226 230 220 221 205 195 190 183 174 174 170
27 19 24 37 40 36 31 30 26 19 13 7 356 340 321 313 306 299 293 291 291 292 289 287 287 286 282 279 273 283 288 248 223 225 208 212 193 204 188 185 177 170 170
28 21 31 41 41 38 34 30 28 25 23 16 7 359 353 336 322 312 303 298 292 291 289 285 284 281 279 275 274 276 277 257 227 216 213 207 193 209 198 186 181 167 171
17 11 27 34 36 35 32 29 26 22 20 16 9 5 2 354 343 328 312 302 295 291 289 287 283 278 281 282 279 276 271 251 237 209 213 211 196 213 203 188 184 178 178
37 19 24 27 30 31 29 25 24 22 19 15 14 9 359 354 353 348 341 316 297 291 287 285 284 277 278 272 269 270 267 251 237 216 214 216 201 206 211 196 190 185 179
32 36 26 26 25 28 28 25 22 19 18 17 16 9 3 0 355 352 344 337 325 301 286 283 282 280 276 266 265 262 260 254 239 223 214 214 215 206 208 204 193 185 182
30 31 25 23 24 16 20 22 22 22 20 15 11 7 6 2 353 353 349 339 332 323 306 283 279 276 277 270 257 255 254 249 244 231 218 210 209 211 211 203 195 187 184
29 32 20 18 13 8 18 10 11 12 14 14 10 5 1 358 353 357 348 346 347 340 324 311 293 279 272 270 263 250 250 245 229 234 231 219 209 215 212 204 194 188 186
26 11 25 20 10 1 4 1 354 355 351 355 359 3 1 352 356 350 342 345 347 340 337 326 313 298 282 270 260 256 254 240 226 228 229 226 213 217 213 209 194 190 188
29 26 20 18 6 3 350 346 339 345 342 348 352 352 357 356 349 347 336 339 343 337 328 332 322 302 290 268 253 252 248 236 238 229 222 224 220 220 214 207 199 192 189
78 45 19 14 360 335 323 328 323 352 356 351 336 341 350 350 345 340 334 326 334 330 316 336 333 329 305 274 263 252 243 238 232 239 226 217 219 220 215 208 201 196 192
62 29 2 5 6 341 350 342 352 351 357 345 346 341 350 349 342 332 329 319 312 318 323 325 323 321 314 312 268 254 245 239 236 233 235 218 216 221 214 212 206 199 194
116 61 346 13 13 356 0 351 341 340 336 349 342 332 344 340 337 334 325 317 303 310 306 304 311 311 313 304 299 259 247 244 238 234 234 231 216 220 216 213 212 205 197
130 95 20 26 26 6 339 325 327 309 348 357 357 339 334 344 334 326 322 314 302 304 300 298 304 301 302 309 307 280 251 239 236 232 235 229 218 216 221 213 214 210 202
117 95 23 22 357 355 308 296 301 336 349 348 350 343 346 337 339 324 320 317 307 298 301 298 301 298 302 307 305 307 270 239 232 225 233 228 221 214 214 224 215 213 206
130 113 55 324 320 323 324 314 302 359 7 352 348 341 346 341 339 336 323 324 325 311 295 291 294 286 294 299 303 301 302 247 240 222 224 224 219 212 210 214 225 218 212
128 120 10 301 280 281 280 268 305 5 358 354 341 332 340 334 330 328 322 320 318 308 302 292 279 275 282 290 297 294 292 283 260 229 221 222 217 213 209 205 211 222 215
127 112 293 297 294 286 250 330 11 358 322 330 319 326 333 322 322 321 306 305 310 299 296 298 283 279 274 268 287 295 280 273 283 226 220 215 213 212 209 205 209 211 212
156 168 259 301 306 298 342 353 21 294 271 280 281 301 296 310 308 312 315 307 302 297 294 284 285 279 267 248 266 297 292 293 287 224 222 215 218 210 209 204 211 212 207
177 196 234 305 297 291 352 336 324 284 282 286 320 309 305 307 305 312 303 296 300 299 296 301 299 278 267 256 219 237 280 240 307 265 215 220 216 217 211 209 213 210 200
195 197 217 319 317 303 353 345 331 290 309 301 303 296 300 315 310 306 297 295 294 307 295 291 293 299 264 262 249 223 239 255 276 306 301 221 209 211 213 211 211 213 213
179 201 206 306 308 309 320 309 300 292 293 303 297 302 317 314 302 300 292 295 300 295 291 290 290 285 288 258 254 241 239 246 241 251 269 305 208 199 205 199 193 194 181
197 213 226 305 299 303 307 298 278 277 294 300 304 315 309 305 302 298 287 290 299 291 284 290 291 284 276 288 248 235 239 245 246 219 250 276 240 187 196 178 189 184 171